Location: Kershaw
(34.5481°N, 80.5823°W)
Time: 09:10:26
(UTC+00:00)

Altair - Pass Details

Date: 06 October 2022
Orbit: 1501 x 1682 km, 47.2° (Epoch: 30 November)

Event Time Altitude Azimuth Distance (km) Brightness Sun altitude
Rises 13:19:39 0° 296° (WNW) 4,846 9.5 22.7°
Reaches altitude 10° 13:23:01 10° 303° (WNW) 3,882 9.1 23.4°
Maximum altitude 13:32:27 44° 14° (NNE) 2,187 8.5 25.1°
Drops below altitude 10° 13:42:01 10° 84° (E) 3,944 10.7 26.9°
Sets 13:45:27 0° 91° (E) 4,929 11.1 27.5°
